This is the latest recevied weather packets stored in our database for station/object N0NB. If no packets are shown the sender has not sent any weather packets the latest 10 day(s).
| Time | Temp. | Humidity | Pressure | Rain* | Wind** | Luminosity | Snow |
|---|---|---|---|---|---|---|---|
| 1788133817 | 34.44° C | 60% | 1007.2 hPa | 0 mm | - | 136 W/m² | - |
| 1788133217 | 35° C | 59% | 1007.2 hPa | 0 mm | - | 170 W/m² | - |
| 1788132617 | 35.56° C | 58% | 1007.4 hPa | 0 mm | - | 206 W/m² | - |
| 1788132017 | 35.56° C | 57% | 1007.4 hPa | 0 mm | - | 240 W/m² | - |
| 1788131417 | 35.56° C | 54% | 1007.3 hPa | 0 mm | - | 280 W/m² | - |
| 1788130817 | 36.11° C | 51% | 1007.4 hPa | 0 mm | - | 301 W/m² | - |
| 1788130217 | 36.11° C | 50% | 1007.3 hPa | 0 mm | - | 342 W/m² | - |
| 1788129617 | 36.11° C | 50% | 1007.4 hPa | 0 mm | - | 433 W/m² | - |
| 1788129017 | 36.11° C | 51% | 1007.4 hPa | 0 mm | - | 432 W/m² | - |
| 1788128417 | 35.56° C | 53% | 1007.3 hPa | 0 mm | - | 508 W/m² | - |
| 1788127817 | 35° C | 51% | 1007.2 hPa | 0 mm | - | 312 W/m² | - |
| 1788127217 | 35° C | 49% | 1007.4 hPa | 0 mm | - | 297 W/m² | - |
| 1788126617 | 35.56° C | 47% | 1007.5 hPa | 0 mm | - | 204 W/m² | - |
| 1788126017 | 36.11° C | 48% | 1007.6 hPa | 0 mm | - | 462 W/m² | - |
| 1788125417 | 36.11° C | 48% | 1007.7 hPa | 0 mm | - | 533 W/m² | - |
| 1788124817 | 36.11° C | 47% | 1007.8 hPa | 0 mm | - | 556 W/m² | - |
| 1788124217 | 36.11° C | 47% | 1007.8 hPa | 0 mm | - | 580 W/m² | - |
| 1788123617 | 36.11° C | 46% | 1007.9 hPa | 0 mm | - | 603 W/m² | - |
| 1788123017 | 36.11° C | 50% | 1008 hPa | 0 mm | - | 623 W/m² | - |
| 1788122417 | 35.56° C | 45% | 1008.1 hPa | 0 mm | - | 643 W/m² | - |
| 1788121817 | 35.56° C | 48% | 1008.2 hPa | 0 mm | - | 656 W/m² | - |
| 1788121217 | 35.56° C | 46% | 1008.4 hPa | 0 mm | - | 678 W/m² | - |
| 1788120617 | 35.56° C | 47% | 1008.6 hPa | 0 mm | - | 692 W/m² | - |
| 1788120017 | 35° C | 51% | 1008.8 hPa | 0 mm | - | 705 W/m² | - |
| 1788119417 | 35° C | 47% | 1009 hPa | 0 mm | - | 724 W/m² | - |
* Rain latest hour (hover to see other rain measurements)
** Current wind speed in m/s (hover to see current wind gust speed)